Simultaneous Nadir Overpasses (SNOs) Predictions

Prediction of SNOs between NOAA-21 and NOAA-19 Satellite Orbit:

Table of predicted SNOs for the next 14.0 days since TLE Epoch: 7/27/2024
Index Date (NOAA-21) Time (NOAA-21) Lat,Lon (NOAA-21) SZA (NOAA-21 ) Date (NOAA-19) Time (NOAA-19) Lat,Lon (NOAA-19) SZA (NOAA-19 ) Distance(km) Time Diff (sec)
1 08/02/2024 08:21:15 72.17, 47.54 54.71 08/02/2024 08:20:09 72.17, 44.65 54.92 98.23 66
2 08/02/2024 09:12:08 -72.61,-146.04 124.79 08/02/2024 09:10:56 -72.60,-147.18 124.72 38.09 72
3 08/02/2024 10:02:59 72.88, 20.71 55.52 08/02/2024 10:01:52 72.91, 20.74 55.56 3.10 67
4 08/02/2024 10:53:44 -72.92,-172.05 124.44 08/02/2024 10:52:48 -72.89,-172.04 124.45 3.50 56
5 08/02/2024 11:44:29 72.89, -4.67 55.54 08/02/2024 11:43:50 72.90, -4.77 55.57 3.84 39
6 08/02/2024 12:35:14 -72.92, 162.57 124.42 08/02/2024 12:34:45 -72.93, 162.56 124.40 0.83 29
7 08/02/2024 13:26:00 72.94, -30.15 55.62 08/02/2024 13:25:47 72.94, -30.17 55.62 0.64 13
8 08/02/2024 14:16:45 -72.97, 137.08 124.34 08/02/2024 14:16:42 -72.97, 137.16 124.35 2.49 3
9 08/02/2024 15:07:31 72.99, -55.64 55.69 08/02/2024 15:07:44 72.98, -55.57 55.67 2.64 13
10 08/02/2024 15:58:15 -72.98, 111.70 124.32 08/02/2024 15:58:40 -72.96, 111.65 124.34 2.78 25
11 08/02/2024 16:49:01 72.99, -81.02 55.71 08/02/2024 16:49:41 73.02, -80.97 55.73 3.15 40
12 08/02/2024 17:39:45 -72.98, 86.32 124.30 08/02/2024 17:40:37 -73.00, 86.25 124.29 3.23 52
13 08/02/2024 18:30:31 73.00,-106.40 55.74 08/02/2024 18:31:39 73.01,-106.49 55.74 2.95 68
14 08/02/2024 19:21:19 -73.18, 60.51 124.05 08/02/2024 19:22:32 -73.14, 61.07 124.15 18.92 73



Historial Predications of SNOs between NOAA-21 and NOAA-19
